Tracking 18852 objects as of 23-Nov-2017
HD Live streaming from Space Station
objects crossing your sky now

TIROS 5

Track TIROS 5 now!
10-day predictions
TIROS 5 is classified as:


NORAD ID: 309
Int'l Code: 1962-025A
Perigee: 577.8 km
Apogee: 844.2 km
Inclination: 58.1 °
Period: 98.9 minutes
Semi major axis: 7081 km
RCS: 0.8142 m2 (medium)
Launch date: June 19, 1962
Source: United States (US)
Launch site: AIR FORCE EASTERN TEST RANGE (AFETR)
aabbcc
Your satellite tracking list
Your tracking list is empty




NASA's NSSDC Master Catalog

Two Line Element Set (TLE):
1   309U 62025A   17326.87473938 -.00000133 +00000-0 +13140-4 0  9996
2   309 058.0906 147.2796 0188071 292.2054 065.9115 14.56709113925704
Source of the keplerian elements: AFSPC